Вернуться в каталог

COSMOS 2251 DEB

АктивенLEO
NORAD 35033·DEBRIS·🇷🇺 Russia

Запущен Jun 16, 1993 с Plesetsk Cosmodrome

Loading…

Ближайшие Пролёты (ближайшие 24 часа)

TLE

СвежийSource: Space-Track

Эпоха: Sep 13, 2026, 02:01 UTC

1 35033U 93036AGW 26256.08415273  .00001368  00000-0  34411-3 0  9990
2 35033  74.0275  19.7355 0013529  57.0348 303.2112 14.52137763699081

Отслеживайте COSMOS 2251 DEB в реальном времени с AllMySat

Download on the App Store